Flag for Grenada Weather past 2 weeks in Saint George's, Grenada

Now
77 °F

Passing clouds.


Feels Like: 78 °F
Forecast: 77 / 82 °F
Wind: 6 mph from East

Location: Point Salines Airport

Current Time: Sep 20, 2014 at 12:35:27 AM

Latest Report: Sep 20, 2014 at 12:00 AM


Visibility: N/A

Pressure: 29.89 "Hg

Humidity: 94%

Dew point: 75 °F

Location of Saint George'sLocation

Historic Weather in Saint George's — Graph

°F

Saint George's temperature yesterday

Maximum temperature yesterday: 81 °F (at 12:00 AM)
Minimum temperature yesterday: 75 °F (at 9:00 AM)
Average temperature yesterday: 79 °F

Past Weeks' High & Low Weather Summary

 TemperatureHumidityPressure
High90 °F (Sep 5, 11:00 AM)100% (Sep 11, 7:00 AM)30.01 "Hg (Sep 11, 7:00 AM)
Low68 °F (Sep 15, 10:00 AM)62% (Sep 9, 10:00 AM)29.83 "Hg (Sep 6, 4:00 AM)
Average83 °F83%29.91 "Hg
* Reported Sep 4 11:00 PM — Sep 19 11:00 PM, Saint George's, Weather by CustomWeather, © 2014

Note: Actual official high and low records may vary slightly from our data, if they occured in-between our weather recording intervals... More about our weather records

Advertising

Saint George's weather history for previous 24 hours

 ConditionsComfort  
Time TempWeatherWind HumidityBarometerVisibility
11:00 PM
Sep 19
75 °FPassing clouds.No wind100%29.92 "HgN/A
10:00 PM77 °FPassing clouds.No wind94%29.92 "HgN/A
9:00 PM77 °FPassing clouds.No wind94%29.92 "HgN/A
8:30 PM77 °FPassing clouds.No wind94%29.89 "HgN/A
7:00 PM79 °FPassing clouds.No wind94%29.89 "HgN/A
6:00 PM81 °FLight rain. Partly sunny.No wind84%29.92 "HgN/A
5:00 PM81 °FLight rain. Partly sunny.No wind84%29.89 "HgN/A
4:00 PM81 °FPartly sunny.No wind89%29.86 "HgN/A
3:00 PM81 °FLight rain. Partly sunny.No wind89%29.86 "HgN/A
2:00 PM79 °FLight rain. Scattered clouds.8 mph94%29.86 "HgN/A
1:00 PM81 °FPartly sunny.12 mph89%29.89 "HgN/A
12:00 PM79 °FLight rain. Partly sunny.12 mph94%29.95 "HgN/A
11:00 AM77 °FLight rain. Overcast.16 mph100%29.98 "HgN/A
10:00 AM77 °FLight rain. Overcast.14 mph100%29.98 "HgN/A
9:00 AM75 °FLight rain. Overcast.14 mph94%29.95 "Hg5 mi
8:15 AM77 °FRain showers. Broken clouds.23 mph100%29.95 "Hg3 mi
8:00 AM77 °FSprinkles. Broken clouds.23 mph100%29.95 "Hg4 mi
7:00 AM79 °FStrong thunderstorms. Broken clouds.21 mph89%29.92 "Hg1 mi
6:00 AM79 °FScattered clouds.2 mph94%29.89 "HgN/A
5:00 AM81 °FSprinkles. Passing clouds.2 mph94%29.86 "HgN/A
4:00 AM81 °FPassing clouds.No wind94%29.86 "HgN/A
3:00 AM81 °FPassing clouds.6 mph89%29.86 "HgN/A
2:00 AM81 °FPassing clouds.2 mph94%29.86 "HgN/A
1:00 AM81 °FPassing clouds.7 mph89%29.89 "HgN/A
12:00 AM81 °FPassing clouds.8 mph89%29.89 "HgN/A
Weather by CustomWeather, © 2014

See weather overviewHow to use our weather pages